Location: G�migny
(47.9646°N, 1.6950°E)
Time: 14:34:11
(UTC+00:00)

Cosmos 2082 Rocket - Pass Details

Date: 23 October 2019
Orbit: 832 x 855 km, 71.0° (Epoch: 12 November)

Event Time Altitude Azimuth Distance (km) Brightness Sun altitude
Rises 19:11:29 0° 323° (NW) 3,431 6.0 -24.2°
Reaches altitude 10° 19:14:18 10° 312° (NW) 2,488 5.4 -24.6°
Maximum altitude 19:18:55 26° 257° (WSW) 1,616 4.3 -25.4°
Drops below altitude 10° 19:23:30 10° 203° (SSW) 2,462 4.7 -26.2°
Sets 19:26:17 0° 191° (S) 3,388 5.3 -26.6°
